{"data":{"norad_id":69870,"intl_designator":"2026-156B","name":"ICEYE-X79","alt_names":[],"object_type":"PAYLOAD","status":"ACTIVE","operator":null,"country":"NETH","launch_date":"2026-07-07","launch_site_code":"AFWTR","launch_vehicle":null,"mission":null,"orbit_class":"UNKNOWN","rcs_meters":null,"size_class":null,"mass_kg":null,"dimensions":null,"purposes":[],"wikipedia_slug":null,"has_3d_model":false,"image_url":null,"decayed_at":null,"tle_current":{"epoch":"2026-09-19T23:57:28.385280Z","epoch_age_seconds":65020,"freshness":"FRESH","line1":"1 69870U 26156B   26262.99824520  .00001824  00000+0  18593-3 0  9990","line2":"2 69870  97.7433 162.1772 0005148 261.4827  98.5809 14.91892243 11137","mean_motion":14.91892243,"eccentricity":0.0005148,"inclination_deg":97.7433,"raan_deg":162.1772,"arg_perigee_deg":261.4827,"mean_anomaly_deg":98.5809,"bstar":0.00018593,"rev_number":1113,"period_min":96.521716414608,"perigee_km":588.44743362101,"apogee_km":595.62392341081,"semimajor_km":6970.1726785159,"source":"CELESTRAK","updated_at":"2026-09-20T09:00:25.162344Z"}}}